WE3C Weather Reports


Display with metric or nautical units.
time (UTC)temp
F
wind
direction
speed
MPH
gust
MPH
rain 1hr
in
rain 24hr
in
rain mn
in
humidity
%
barometer
mb
20260904041548 74 296 0.0 0.0 0.00 0.00 0.00 82 1017.2
20260904040035 75 271 0.0 0.0 0.00 0.00 0.00 82 1017.6
20260904034546 76 238 0.0 0.0 0.00 0.00 0.00 81 1017.8
20260904033031 76 230 0.0 0.0 0.00 0.00 0.00 81 1017.5
20260904031531 76 215 0.0 0.0 0.00 0.00 0.00 81 1017.9
20260904030026 76 228 0.0 0.0 0.00 0.00 0.00 82 1018.2
20260904024526 75 224 0.0 0.0 0.00 0.00 0.00 82 1018.2
20260904023025 74 229 0.0 0.0 0.00 0.00 0.00 82 1017.9
20260904021524 74 230 0.0 0.0 0.00 0.00 0.00 82 1017.8
20260904020025 75 242 0.0 0.0 0.00 0.00 0.00 82 1018.0
20260904014524 75 242 0.0 0.0 0.00 0.00 0.00 82 1018.3
20260904013023 75 219 0.0 0.0 0.00 0.00 0.00 82 1018.3
20260904011553 75 212 0.0 0.0 0.00 0.00 0.00 82 1018.2
20260904010026 75 216 0.0 0.0 0.00 0.00 0.00 82 1018.3
20260904004521 75 244 0.0 0.0 0.00 0.00 0.00 82 1018.4
20260904003020 75 222 0.0 0.0 0.00 0.00 0.00 82 1018.5
20260904001519 75 224 0.0 0.0 0.00 0.00 0.00 82 1018.4
20260904000030 75 217 0.0 0.0 0.00 0.00 0.00 82 1017.8
20260903234534 75 234 0.0 0.0 0.00 0.00 0.00 82 1017.7
20260903233021 76 225 0.0 0.0 0.00 0.00 0.00 82 1017.9
20260903231518 76 218 0.0 0.0 0.00 0.00 0.00 82 1018.0
20260903230019 77 223 0.0 0.0 0.00 0.00 0.00 81 1018.2
20260903224516 78 227 0.0 0.0 0.00 0.00 0.00 80 1018.0
20260903223017 79 246 0.0 0.0 0.00 0.00 0.00 80 1017.6
20260903221516 79 227 0.0 0.0 0.00 0.00 0.00 77 1017.5
20260903220015 81 249 0.0 0.0 0.00 0.00 0.00 77 1017.7
20260903214515 81 248 0.0 0.0 0.00 0.00 0.00 78 1017.6
20260903213024 81 245 0.0 0.0 0.00 0.00 0.00 76 1017.4
20260903211519 82 249 0.0 0.0 0.00 0.00 0.00 74 1017.2
20260903210012 82 244 0.0 0.0 0.00 0.00 0.00 74 1017.3
20260903204514 83 360 0.0 0.0 0.00 0.00 0.00 73 1017.4
20260903203024 84 242 0.0 0.0 0.00 0.00 0.00 70 1017.6
20260903201506 83 252 0.0 0.0 0.00 0.00 0.00 69 1017.6
20260903200006 83 250 0.0 0.0 0.00 0.00 0.00 71 1017.8
20260903194534 82 234 0.0 0.0 0.00 0.00 0.00 71 1018.0
20260903193036 83 272 0.0 0.0 0.00 0.00 0.00 69 1018.1
20260903191525 83 267 0.0 0.0 0.00 0.00 0.00 71 1018.2
20260903190022 83 360 0.0 0.0 0.00 0.00 0.00 72 1018.6
20260903184521 83 360 0.0 0.0 0.00 0.00 0.00 70 1018.7
20260903183019 83 269 0.0 0.0 0.00 0.00 0.00 71 1018.8
20260903181550 83 284 0.0 0.0 0.00 0.00 0.00 72 1019.0
20260903180054 82 299 0.0 0.0 0.00 0.00 0.00 71 1019.1
20260903174546 82 248 0.0 0.0 0.00 0.00 0.00 70 1019.4
20260903173043 82 236 0.0 0.0 0.00 0.00 0.00 75 1019.2
20260903171555 81 244 0.0 0.0 0.00 0.00 0.00 77 1019.4
20260903170035 80 301 0.0 0.0 0.00 0.00 0.00 78 1019.8
20260903164533 78 219 0.0 0.0 0.00 0.00 0.00 82 1019.8
20260903163027 76 238 0.0 0.0 0.00 0.00 0.00 82 1020.3
20260903161528 76 236 0.0 0.0 0.00 0.00 0.00 83 1020.5
20260903160030 74 236 0.0 0.0 0.00 0.00 0.00 82 1020.4
20260903154522 73 247 0.0 0.0 0.00 0.00 0.00 81 1020.8
20260903153015 72 360 0.0 0.0 0.00 0.00 0.00 81 1021.1
20260903151519 71 298 0.0 0.0 0.00 0.00 0.00 82 1021.3
20260903150017 71 272 0.0 0.0 0.00 0.00 0.00 82 1021.2
20260903144534 71 234 0.0 0.0 0.00 0.00 0.00 82 1021.0
20260903143010 71 291 0.0 0.0 0.00 0.00 0.00 82 1021.7
20260903141508 70 360 0.0 0.0 0.00 0.00 0.00 82 1021.5
20260903140006 70 244 0.0 0.0 0.00 0.00 0.00 82 1021.1
20260903134504 70 279 0.0 0.0 0.00 0.00 0.00 82 1020.9
20260903133003 69 263 0.0 0.0 0.00 0.00 0.00 82 1020.6
20260903131601 69 236 0.0 0.0 0.00 0.00 0.00 82 1020.6
20260903131502 69 233 0.0 0.0 0.00 0.00 0.00 82 1020.7
20260903130059 68 249 0.0 0.0 0.00 0.00 0.00 82 1020.5
20260903124609 68 256 0.0 0.0 0.00 0.00 0.00 82 1020.7
20260903123057 67 360 0.0 0.0 0.00 0.00 0.00 82 1021.0
20260903121601 67 360 0.0 0.0 0.00 0.00 0.00 82 1020.9
20260903114555 67 223 0.0 0.0 0.00 0.00 0.00 82 1020.5
20260903113131 66 206 0.0 0.0 0.00 0.00 0.00 82 1020.4
20260903111552 66 208 0.0 0.0 0.00 0.00 0.00 83 1020.4
20260903110056 66 205 0.0 0.0 0.00 0.00 0.00 82 1020.2
20260903104559 66 233 0.0 0.0 0.00 0.00 0.00 82 1021.1
20260903103048 66 219 0.0 0.0 0.00 0.00 0.00 83 1021.3
20260903101549 66 218 0.0 0.0 0.00 0.00 0.00 82 1022.1
20260903100048 66 244 0.0 0.0 0.00 0.00 0.00 82 1022.2
20260903094553 66 192 0.0 0.0 0.00 0.00 0.00 82 1021.1
20260903093046 66 198 0.0 0.0 0.00 0.00 0.00 82 1021.5
20260903091550 66 206 0.0 0.0 0.00 0.00 0.00 82 1021.6
20260903090048 66 150 0.0 0.0 0.00 0.00 0.00 82 1020.7
20260903084542 66 153 0.0 0.0 0.00 0.00 0.00 82 1021.3
20260903083040 66 163 0.0 0.0 0.00 0.00 0.00 82 1021.3
20260903081538 66 148 0.0 0.0 0.00 0.00 0.00 82 1021.6
20260903080038 66 143 0.0 0.0 0.00 0.00 0.00 82 1022.0
20260903074540 66 164 0.0 0.0 0.00 0.00 0.00 82 1022.2
20260903073036 66 343 0.0 0.0 0.00 0.00 0.00 82 1022.8
20260903051533 67 115 0.0 0.0 0.00 0.00 0.00 82 1022.0
20260903050013 67 40 0.0 0.0 0.00 0.00 0.00 82 1024.0
20260903044506 68 343 0.0 0.0 0.00 0.00 0.00 82 1024.1
20260903043004 68 360 0.0 0.0 0.00 0.00 0.00 82 1023.4